Regional Weather Roundup
Issued by NWS

Home | Current Version | Previous Version | Text Only | Print | Product List | Glossary On
Versions: 1 2 3 4 5 6 7 8 9 10 11 12 13 14 15 16 17 18 19 20 21 22 23 24 25 26 27 28 29 30 31 32 33 34 35 36 37 38 39 40 41 42 43 44 45 46 47 48 49 50
000
ASUS43 KMPX 210701
RWRMN
WEATHER ROUNDUP FOR MINNESOTA
NATIONAL WEATHER SERVICE TWIN CITIES/CHANHASSEN MN
100 AM CST SUN DEC 21 2014


NOTE: "FAIR" INDICATES FEW OR NO CLOUDS BELOW 12,000 FEET WITH NO
SIGNIFICANT WEATHER AND/OR OBSTRUCTIONS TO VISIBILITY. N/A MEANS
CURRENT SKY AND/OR WEATHER CONDITIONS ARE NOT AVAILABLE.

MNZ060>063-068>070-210800-
   Twin Cities Metro

CITY           SKY/WX    TMP DP  RH WIND       PRES   REMARKS
TWIN CITIES    CLOUDY    31  27  85 SE9       30.06F WCI  23
ST PAUL        CLOUDY    32  28  85 S9        30.08F WCI  24
CRYSTAL        CLOUDY    32  27  81 SE9       30.04S WCI  24
BLAINE         CLOUDY    34  30  86 S9        30.05S WCI  26
LAKEVILLE      CLOUDY    30  28  93 SE3       30.05S
EDEN PRAIRIE   CLOUDY    31  27  85 S7        30.04S WCI  24
SOUTH ST PAUL  CLOUDY    32  28  84 SE6       30.06F WCI  26
LAKE ELMO      CLOUDY    32  30  93 SE7       30.07S WCI  26
$$
MNZ001>005-007-008-013>017-022>024-027-028-210800-
   Northwest Minnesota

CITY           SKY/WX    TMP DP  RH WIND       PRES   REMARKS
BEMIDJI        CLOUDY    28  27  95 S12       29.90S WCI  18
HALLOCK        CLOUDY    32  30  93 CALM      29.80F FOG
ROSEAU         LGT SNOW  30  27  86 SE8       29.85F VSB 1   WCI  23
WARROAD        LGT SNOW  30  27  86 SE6       29.86F WCI  24
THIEF RVR FALL CLOUDY    30  28  93 S16       29.85F WCI  19
CROOKSTON      CLOUDY    30  30 100 S21G26    29.85F FOG     WCI  17
FOSSTON        CLOUDY    28  27  93 S15       29.87S FOG     WCI  17
DETROIT LAKES  CLOUDY    30  30 100 S16G22    29.89S FOG     WCI  19
MOORHEAD       CLOUDY    32  32 100 S16       29.89S FOG     WCI  21
PARK RAPIDS    CLOUDY    29  27  92 S15       29.90F FOG     WCI  18
MAHNOMEN       CLOUDY    29  28  95 S16G23    29.87F FOG     WCI  18
$$
MNZ006-009>011-018-025>026-210800-
   North Central Minnesota

CITY           SKY/WX    TMP DP  RH WIND       PRES   REMARKS
BAUDETTE       LGT SNOW  29  27  92 S6        29.88F VSB 1   WCI  23
FLAG ISLAND    CLOUDY    28  28 100 S15       29.86F FOG     WCI  17
INTL FALLS     CLOUDY    28  26  92 VRB7      29.94S WCI  21
WASKISH        LGT SNOW  28  28 100 CALM      29.89F
BIG FORK       CLOUDY    28  27  93 S8        29.95S FOG     WCI  20
LONGVILLE      CLOUDY    27  27 100 S9G20     29.95F FOG     WCI  17
GRAND RAPIDS   CLOUDY    27  25  93 S10       29.96S WCI  17
CRANE LAKE     CLOUDY    27  27 100 S5        29.98F FOG     WCI  21
ORR            CLOUDY    27  25  93 S10G18    29.93F WCI  17
COOK           CLOUDY    28  27  93 S7G16     29.97F FOG     WCI  21
WALKER         CLOUDY    27  26  94 S10G16    29.92F WCI  17
$$
MNZ012-019>021-037-210800-
   Northeast Minnesota

CITY           SKY/WX    TMP DP  RH WIND       PRES   REMARKS
DULUTH         CLOUDY    30  25  81 S12       30.00F WCI  20
ELY            CLOUDY    27  27 100 S12       29.98S FOG     WCI  16
HIBBING        CLOUDY    29  25  85 S5G17     29.97F WCI  24
EVELETH        CLOUDY    30  30 100 S9        29.99F FOG     WCI  22
DULUTH HARBOR  CLOUDY    34  28  80 S13G18    30.05F WCI  25
TWO HARBORS    CLOUDY    34  28  80 S7        30.02S WCI  28
SILVER BAY     CLOUDY    32  27  80 S9        30.01F WCI  24
GRAND MARAIS     N/A     34  28  79 SW16      30.07F WCI  24
G MARAIS ARPRT CLOUDY    27  23  86 S8        30.01F FOG     WCI  18
$$
MNZ029>031-032-039>041-046>048-054>057-064-210800-
   West Central Minnesota

CITY           SKY/WX    TMP DP  RH WIND       PRES   REMARKS
FERGUS FALLS   CLOUDY    28  28 100 S16G22    29.94S FOG     WCI  17
WHEATON        CLOUDY    28  27  93 S10       29.92F FOG     WCI  19
MORRIS         CLOUDY    30  30 100 S16       29.91F FOG     WCI  19
ALEXANDRIA     CLOUDY    29  28  96 S20       29.93F FOG     WCI  16
ELBOW LAKE     CLOUDY    29  28  97 S18       29.91F FOG     WCI  17
WADENA         CLOUDY    28  27  93 S14       29.92F FOG     WCI  17
GLENWOOD       CLOUDY    28  28 100 S16G23    29.94F FOG     WCI  17
APPLETON       CLOUDY    32  30  93 S8        29.94F FOG     WCI  25
BENSON         CLOUDY    32  28  86 S12       29.94F WCI  23
ORTONVILLE     CLOUDY    30  28  93 S8        29.91F FOG     WCI  23
MADISON        MOCLDY    36  34  93 S10       29.93F FOG
WILLMAR        CLOUDY    32  30  93 S12       29.98F WCI  23
$$
MNZ033>034-036-042>043-049>051-058-059-210800-
   Central Minnesota

CITY           SKY/WX    TMP DP  RH WIND       PRES   REMARKS
ST CLOUD       CLOUDY    32  27  81 S12       30.00F WCI  23
SAUK CENTRE    CLOUDY    30  29  96 S14       29.96F FOG     WCI  19
PAYNESVILLE    CLOUDY    28  28  98 SE9       29.98F WCI  20
AITKIN         CLOUDY    30  27  86 S13       29.97F HAZE    WCI  20
PINE RIVER     CLOUDY    27  27 100 SE14      29.98F FOG     WCI  15
BRAINERD       CLOUDY    28  26  92 S9        29.98F FOG     WCI  19
STAPLES        CLOUDY    28  27  93 S13       29.94F FOG     WCI  18
LONG PRAIRIE   CLOUDY    30  28  93 SE16G22   29.95F FOG     WCI  19
LITTLE FALLS   CLOUDY    30  28  93 SE8       29.98F FOG     WCI  23
LITCHFIELD     CLOUDY    32  32 100 S3        30.00S
BUFFALO        CLOUDY    31  28  88 SE7       30.03F WCI  24
MAPLE LAKE     CLOUDY    32  30  93 SE10G16   30.01F WCI  24
$$
MNZ037-044-045-052-053-210800-
   East Central Minnesota

CITY           SKY/WX    TMP DP  RH WIND       PRES   REMARKS
PRINCETON      CLOUDY    32  28  86 SE8       30.02F WCI  25
MORA           CLOUDY    32  27  80 S12       30.06S WCI  23
CAMBRIDGE      CLOUDY    32  25  74 SE6       30.03S WCI  26
RUSH CITY      CLOUDY    31  27  86 S7        30.05F WCI  24
MOOSE LAKE     CLOUDY    30  28  93 S7        30.01S WCI  23
HINCKLEY       CLOUDY    32  30  93 S10       30.05S WCI  24
CLOQUET        CLOUDY    28  27  93 S9        30.00F FOG     WCI  20
MCGREGOR       CLOUDY    30  28  93 S12       29.99F WCI  21
$$
MNZ071>073-080-081-089-090-097-098-210800-
   Southwest Minnesota

CITY           SKY/WX    TMP DP  RH WIND       PRES   REMARKS
MONTEVIDEO     CLOUDY    30  30 100 S10       29.96F WCI  21
GRANITE FALLS  CLOUDY    32  30  93 SE10      29.98F WCI  23
CANBY          CLOUDY    32  30  94 S5        29.94F FOG     WCI  27
MARSHALL       CLOUDY    30  27  86 S9        29.95F WCI  22
REDWOOD FALLS  CLOUDY    32  30  92 S13       29.98F WCI  22
OLIVIA         CLOUDY    32  30  93 S10       29.97F WCI  24
PIPESTONE      FOG       30  28  93 S5        29.92F VSB 1/2 WCI  25
WINDOM         CLOUDY    30  30 100 S8G17     29.97F FOG     WCI  23
WORTHINGTON    CLOUDY    30  28  93 S14       29.96F VSB 1   WCI  20
JACKSON        CLOUDY    32  30  93 S12       29.98F FOG     WCI  23
TRACY          CLOUDY    32  31  95 S12G18    29.94F FOG     WCI  23
SLAYTON        FOG       30  30 100 S6        29.94F VSB 1/2 WCI  24
$$
MNZ065>067-074>077-082>085-091>093-210800-
   South Central Minnesota

CITY           SKY/WX    TMP DP  RH WIND       PRES   REMARKS
MANKATO        CLOUDY    32  27  80 S12       30.02F WCI  23
NEW ULM        CLOUDY    32  32 100 S12       30.00F WCI  23
ST JAMES       CLOUDY    34  30  86 S12       30.01F WCI  25
FAIRMONT       CLOUDY    32  28  86 S13       30.00F WCI  22
GLENCOE        CLOUDY    32  31  98 SE8       30.01F FOG     WCI  25
FARIBAULT      CLOUDY    32  30  93 S8        30.05S FOG     WCI  25
OWATONNA       CLOUDY    32  30  93 S10       30.04F FOG     WCI  24
WASECA         CLOUDY    32  30  93 S12       30.05F FOG     WCI  23
ALBERT LEA     CLOUDY    32  32 100 S10       30.04S FOG     WCI  24
$$
MNZ078>079-086>088-094>096-210800-
   Southeast Minnesota

CITY           SKY/WX    TMP DP  RH WIND       PRES   REMARKS
ROCHESTER      CLOUDY    30  29  96 S12       30.06F FOG     WCI  20
RED WING       CLOUDY    34  28  80 SE7       30.08F WCI  28
STANTON        CLOUDY    33  29  86 SE7       30.05S WCI  26
DODGE CENTER   CLOUDY    30  30 100 S10       30.05F FOG     WCI  21
WINONA         CLOUDY    34  32  93 SE7       30.12F FOG     WCI  28
AUSTIN         FOG       30  30 100 S8        30.06S VSB 1/2 WCI  23
PRESTON        CLOUDY    30  29  97 S10G17    30.08F FOG     WCI  21
$$
ABBREVIATIONS USED IN REMARKS
   TC - TEMPERATURES IN CELSIUS
  WCI - WIND CHILL INDEX
   HX - HEAT INDEX
  VSB - VISIBILITY
$$


USA.gov is the U.S. government's official web portal to all federal, state and local government web resources and services.